Simultaneous Nadir Overpasses (SNOs) Predictions

Prediction of SNOs between LANDSAT-8 and METOP-B Satellite Orbit:

Table of predicted SNOs for the next 14.0 days since TLE Epoch: 12/15/2018
Index Date (LANDSAT-8) Time (LANDSAT-8) Lat,Lon (LANDSAT-8) SZA (LANDSAT-8 ) Date (METOP-B) Time (METOP-B) Lat,Lon (METOP-B) SZA (METOP-B ) Distance(km) Time Diff (sec)
1 12/16/2018 18:44:57 -81.08, 117.92 73.63 12/16/2018 18:43:57 -81.09, 118.03 73.64 2.14 60
2 12/16/2018 19:34:22 81.11, -73.99 106.44 12/16/2018 19:34:36 81.11, -73.91 106.46 1.40 14
3 12/19/2018 14:19:11 -81.09,-175.42 73.55 12/19/2018 14:18:22 -81.09,-175.55 73.59 2.27 49
4 12/19/2018 15:08:36 81.12, -7.36 106.52 12/19/2018 15:09:01 81.11, -7.53 106.50 3.17 25
5 12/22/2018 09:53:25 -81.08,-109.13 73.59 12/22/2018 09:52:46 -81.09,-109.14 73.60 0.46 39
6 12/22/2018 10:42:50 81.11, 58.91 106.48 12/22/2018 10:43:25 81.11, 58.84 106.49 1.11 35
7 12/25/2018 05:27:39 -81.10, -42.48 73.63 12/25/2018 05:27:10 -81.10, -42.36 73.63 2.08 29
8 12/25/2018 06:17:04 81.12, 125.54 106.43 12/25/2018 06:17:49 81.12, 125.58 106.45 0.86 45
9 12/28/2018 01:01:54 -81.09, 23.80 73.79 12/28/2018 01:01:36 -81.09, 23.66 73.81 2.50 18




NCC Satellite Simultaneous Nadir Overpasses (SNOs) Prediction Service
